Preview of NWS' New Version of Forecast
This preview is not operational and should not be used for support decisions.

Regional Weather Roundup (RWR)

Issued by National Weather Service (NWS)

                            
000
ASUS44 KJAN 211510
RWRMS 

MISSISSIPPI HOURLY WEATHER ROUNDUP
NATIONAL WEATHER SERVICE JACKSON MS
1000 AM CDT SUN APR 21 2019

NOTE: "FAIR: INDICATES FEW OR NO CLOUDS BELOW 12,000 FEET WITH NO
SIGNIFICANT WEATHER AND/OR OBSTRUCTIONS TO VISIBILITY.

MSZ001>002-007>008-010>013-018>021-025>028-034>036-211600-
NORTHWEST MISSISSIPPI
  
CITY           SKY/WX    TMP DP  RH WIND       PRES   REMARKS
BATESVILLE     FAIR      66  48  52 CALM      30.11S                  
CLARKSDALE     SUNNY     70  50  49 S7        30.11R                  
CLEVELAND      FAIR      65  51  61 S9        30.11R                  
GREENWOOD      FAIR      67  45  45 SW7       30.12R                  
GREENVILLE     FAIR      66  52  60 S8        30.10R                  
OLIVE BRANCH   SUNNY     66  46  48 SW8       30.09S                  
OXFORD         FAIR      66  43  42 VRB5      30.13R                  
TUNICA           N/A     63  50  63 S7        30.11R                  
WINONA         FAIR      63  48  59 CALM      30.13S                  
$$

MSZ003>006-009-014>017-022>024-029>033-037>039-211600-
NORTHEAST MISSISSIPPI
  
CITY           SKY/WX    TMP DP  RH WIND       PRES   REMARKS
ABERDEEN       FAIR      63  54  72 VRB5      30.15R                  
COLUMBUS AFB   FAIR      65  47  51 CALM      30.13R                  
CORINTH        FAIR      63  46  55 VRB5      30.12R                  
GOLDN TRIANGLE FAIR      66  48  52 VRB5      30.14S                  
TUPELO         FAIR      64  48  56 VRB3      30.12S                  
$$

MSZ040-058-211600-
CENTRAL MISSISSIPPI
  
CITY           SKY/WX    TMP DP  RH WIND       PRES   REMARKS
JACKSON INTL   FAIR      68  50  52 SW3       30.14R                  
JACKSON HAWKNS FAIR      68  52  56 S6        30.14S                  
MADISON        FAIR      66  50  55 SW6       30.14R                  
MERIDIAN KEY   FAIR      67  48  50 S6        30.16S                  
MERIDIAN NAS   FAIR      69  46  43 VRB6      30.16R                  
RAYMOND        FAIR      68  55  64 S7        30.13S                  
VICKSBURG VKS  SUNNY     66  52  59 S7        30.14R                  
$$

MSZ059>079-211600-
SOUTH MISSISSIPPI
  
CITY           SKY/WX    TMP DP  RH WIND       PRES   REMARKS
HATTIESBURG    FAIR      68  42  38 S5        30.18R                  
LAUREL         SUNNY     66  44  45 S8        30.17S                  
MCCOMB         FAIR      68  49  50 S7        30.16R                  
NATCHEZ        FAIR      67  56  67 SW7       30.15R                  
PINE BELT      FAIR      67  44  43 SW7       30.18R                  
$$

MSZ080>082-211600-
COASTAL MISSISSIPPI
  
CITY           SKY/WX    TMP DP  RH WIND       PRES   REMARKS
BAY ST LOUIS   SUNNY     66  46  48 CALM      30.18S                  
BILOXI         FAIR      70  38  31 SE7       30.18R                  
PASCAGOULA     FAIR      70  36  28 SE5       30.18R                  
GULFPORT       FAIR      69  39  33 SE7       30.18R                  
$$

LAZ007>009-015>016-023>026-211600-
NORTHEAST LOUISIANA
  
CITY           SKY/WX    TMP DP  RH WIND       PRES   REMARKS
BASTROP        FAIR      69  52  55 S6        30.12R                  
TALLULAH/VBURG FAIR      64  55  72 S7        30.13R                  
VIDALIA        FAIR      65  57  73 S7        30.14S                  
$$